This is the latest recevied weather packets stored in our database for station/object OK1ZDJ-13. If no packets are shown the sender has not sent any weather packets the latest 10 day(s).
| Time | Temp. | Humidity | Pressure | Rain* | Wind** | Luminosity | Snow |
|---|---|---|---|---|---|---|---|
| 1777555057 | 16.11° C | 22% | 1030.8 hPa | - | - | - | - |
| 1777554457 | 15.56° C | 23% | 1030.9 hPa | - | - | - | - |
| 1777553857 | 15.56° C | 23% | 1031 hPa | - | - | - | - |
| 1777552657 | 14.44° C | 25% | 1031.3 hPa | - | - | - | - |
| 1777552057 | 14.44° C | 23% | 1031.4 hPa | - | - | - | - |
| 1777551457 | 13.89° C | 24% | 1031.5 hPa | - | - | - | - |
| 1777550257 | 13.89° C | 24% | 1031.6 hPa | - | - | - | - |
| 1777549657 | 13.89° C | 27% | 1031.6 hPa | - | - | - | - |
| 1777549057 | 13.33° C | 26% | 1031.7 hPa | - | - | - | - |
| 1777548457 | 13.33° C | 25% | 1031.7 hPa | - | - | - | - |
| 1777547857 | 12.78° C | 27% | 1031.8 hPa | - | - | - | - |
| 1777547257 | 12.78° C | 27% | 1032 hPa | - | - | - | - |
| 1777546657 | 12.22° C | 25% | 1032.1 hPa | - | - | - | - |
| 1777546057 | 12.22° C | 26% | 1032.4 hPa | - | - | - | - |
| 1777545460 | 12.22° C | 27% | 1032.5 hPa | - | - | - | - |
| 1777544857 | 12.22° C | 28% | 1032.7 hPa | - | - | - | - |
| 1777544257 | 12.22° C | 29% | 1032.7 hPa | - | - | - | - |
| 1777543657 | 12.22° C | 28% | 1032.9 hPa | - | - | - | - |
| 1777543057 | 12.22° C | 29% | 1032.9 hPa | - | - | - | - |
| 1777542457 | 11.67° C | 29% | 1033 hPa | - | - | - | - |
| 1777541862 | 11.11° C | 30% | 1033.2 hPa | - | - | - | - |
| 1777540055 | 10.56° C | 30% | 1033.5 hPa | - | - | - | - |
| 1777539456 | 10.56° C | 30% | 1033.6 hPa | - | - | - | - |
| 1777538855 | 10.56° C | 32% | 1033.6 hPa | - | - | - | - |
| 1777538256 | 9.44° C | 34% | 1033.7 hPa | - | - | - | - |
* Rain since midnight (hover to see other rain measurements)
** Current wind speed in m/s (hover to see current wind gust speed)